Theta_e
321 318 320 319 319 319 321 322 327 352 348 350 349 349 347 347 345 344 345 345 345 346 346 345 345 345 346 346 343 343 342 343 342 341 343 344 343 344 343 342 343 340 342 342
317 318 317 318 319 320 321 322 345 350 348 348 350 351 347 347 345 344 345 344 344 345 346 345 345 345 346 344 343 343 344 344 345 343 338 340 344 343 344 342 343 342 340 342
320 322 318 320 320 320 320 319 343 350 349 348 351 352 350 347 346 344 345 345 345 346 346 346 345 345 346 345 342 342 341 342 345 344 340 343 343 344 345 344 344 342 341 342
321 321 321 321 322 319 320 318 329 349 344 348 344 351 349 349 348 346 345 345 344 345 346 346 345 345 347 344 342 341 344 340 345 346 345 346 344 344 345 344 346 343 342 341
320 319 321 321 321 318 320 328 328 347 341 341 343 342 341 347 350 347 345 344 344 345 344 345 344 345 346 344 343 343 345 339 343 347 345 345 345 345 345 345 345 343 342 341
319 320 319 319 319 319 338 338 336 334 337 341 340 340 343 350 348 347 345 343 342 345 343 345 345 346 346 345 344 344 345 344 340 345 347 346 346 347 346 344 344 345 341 343
321 321 321 320 320 325 334 335 339 342 343 343 336 345 341 342 343 345 344 343 342 344 343 343 344 345 345 345 344 344 345 345 345 342 344 347 344 347 345 345 344 340 344 343
320 322 321 319 320 321 333 331 335 340 341 339 342 346 344 342 342 344 344 341 342 345 344 344 343 345 345 345 344 344 345 345 346 345 342 345 345 345 347 347 347 343 343 343
319 322 321 320 319 324 332 334 326 329 327 340 342 347 345 342 344 344 344 342 343 343 344 344 344 343 344 345 344 344 345 344 345 345 341 343 345 344 344 344 347 346 346 347
319 322 321 321 323 323 325 324 327 323 332 334 345 347 345 347 346 345 345 345 344 342 345 345 344 345 344 344 345 345 344 345 345 346 343 343 346 345 343 345 345 344 344 345
316 318 321 321 322 323 323 323 319 320 323 332 340 342 343 343 342 341 341 343 345 344 342 342 343 343 344 344 343 343 345 345 345 345 344 343 345 346 347 345 345 346 345 345
316 315 321 323 320 317 319 322 319 323 327 331 333 338 338 341 339 339 339 341 340 342 343 344 343 341 342 344 343 344 345 344 344 343 344 344 345 344 342 343 344 344 345 345
315 315 320 321 320 317 317 318 316 315 325 335 332 335 337 338 338 339 340 340 341 340 339 339 344 344 344 342 342 343 343 343 342 344 345 345 346 344 341 339 341 346 343 346
316 314 319 321 320 316 319 317 318 317 325 332 332 341 340 337 335 336 340 338 338 337 340 340 342 340 343 344 344 344 344 344 343 343 346 345 343 343 342 342 340 341 341 345
312 318 319 319 318 318 318 317 318 318 321 328 332 338 339 335 333 337 338 336 338 338 339 340 342 342 343 341 343 339 343 343 343 337 336 331 336 337 339 341 341 341 341 342
310 317 318 321 322 320 318 317 320 335 336 336 336 338 333 332 334 336 337 336 335 335 334 337 339 343 340 341 341 340 343 338 334 342 338 333 338 340 341 340 340 343 342 346
314 316 316 320 318 320 322 317 318 324 335 336 337 333 332 331 334 336 336 335 334 333 332 333 333 337 340 340 339 340 341 341 332 332 334 334 340 342 341 342 343 344 344 344
314 314 314 317 321 325 319 317 330 334 334 332 332 333 332 331 334 335 335 334 333 331 331 332 332 333 335 337 337 339 338 339 339 339 339 339 339 340 339 337 337 337 335 336
310 311 313 316 319 318 320 318 319 324 330 331 332 332 331 331 331 330 333 333 332 332 332 333 333 332 332 332 332 333 332 332 332 331 332 332 334 334 334 334 335 336 337 335
307 307 313 313 318 317 317 318 321 324 322 332 332 331 331 331 332 326 329 332 330 329 331 330 332 330 329 326 326 326 323 323 323 322 324 327 327 329 329 329 330 331 332 334
307 308 309 313 314 316 316 319 321 320 318 332 332 331 330 329 328 326 328 327 324 324 324 324 325 325 323 321 321 320 319 318 316 315 315 315 315 316 316 318 320 319 322 326
310 309 310 308 313 319 317 319 320 318 324 331 332 330 329 326 326 326 326 324 321 321 320 320 320 318 315 313 312 311 310 310 310 309 309 309 309 310 312 313 314 316 317 319
314 311 314 310 311 314 318 321 326 326 325 330 332 329 327 325 323 323 324 321 320 319 319 317 317 314 312 311 310 308 307 306 306 305 305 306 306 306 307 309 309 310 311 314
314 312 314 315 316 316 319 324 324 327 326 326 331 329 326 324 323 323 322 319 318 318 316 315 313 312 311 310 308 306 304 303 303 303 303 303 304 304 305 305 306 308 309 310
313 313 311 312 314 315 317 322 323 324 327 329 328 328 327 326 321 321 319 319 319 316 315 314 313 312 311 309 307 304 303 303 303 303 303 303 304 304 304 305 305 306 306 307
312 311 313 315 315 314 316 320 321 321 320 322 325 326 325 324 323 323 321 319 320 315 315 314 313 312 310 308 306 303 303 302 302 302 303 303 303 304 304 304 305 305 306 307
Wind_Speed
5 5 6 6 5 5 3 2 1 2 6 4 3 4 9 18 21 16 19 25 21 31 29 27 23 21 20 19 19 19 19 17 18 18 20 19 16 14 12 12 14 9 11 8
5 4 7 7 4 4 2 1 1 2 2 4 5 5 1 12 22 27 14 13 25 26 27 27 26 24 22 19 21 21 19 16 13 12 16 15 16 13 12 13 13 14 12 11
6 2 10 6 4 4 2 5 4 3 6 6 4 3 4 3 12 24 20 13 8 23 30 29 29 27 25 23 21 22 19 15 15 13 15 14 15 15 14 14 12 14 14 13
3 2 4 4 4 5 3 6 6 10 4 3 2 4 4 8 6 17 29 25 11 8 28 34 31 31 30 26 22 22 17 18 18 13 15 14 15 14 11 12 11 11 13 15
5 2 2 2 6 8 5 3 8 6 5 4 2 2 2 9 10 12 26 28 18 6 24 33 34 32 30 27 25 20 19 18 20 16 16 14 13 10 9 11 13 11 11 13
5 2 5 7 5 9 8 9 8 5 4 1 4 3 3 6 12 13 22 31 29 13 20 32 33 30 29 28 27 22 21 20 17 18 15 14 13 9 11 12 13 12 13 12
4 4 3 5 4 2 5 5 3 3 1 5 2 4 5 5 5 18 25 31 35 22 5 23 28 29 28 31 29 26 23 23 19 18 17 11 10 8 11 11 10 13 15 12
5 4 6 4 8 9 8 8 5 5 5 3 3 4 3 2 3 15 28 37 31 27 6 8 25 25 28 31 28 28 24 24 22 18 19 15 12 11 9 12 12 11 12 10
3 5 4 5 4 7 6 4 5 7 3 4 3 1 2 5 4 13 22 30 29 32 18 11 11 26 28 29 30 30 27 24 23 19 18 17 15 11 13 11 12 12 12 11
4 1 2 5 1 3 6 5 3 2 6 4 3 3 4 7 8 8 12 22 29 37 34 17 16 16 21 26 29 28 27 25 23 21 19 17 13 11 11 12 15 13 12 12
5 3 6 1 4 1 3 0 5 5 3 6 4 5 1 6 8 10 12 18 28 31 31 30 20 22 21 25 32 28 27 27 25 23 21 19 14 13 11 9 17 14 12 11
1 5 1 4 3 3 2 2 4 5 4 2 3 3 3 6 9 14 13 17 18 22 21 24 26 28 27 27 30 25 26 23 23 21 21 20 16 15 13 12 9 10 11 12
4 2 3 8 6 5 5 4 3 2 3 5 6 4 1 11 14 13 15 15 13 14 14 14 17 9 28 35 36 31 29 28 26 22 20 20 17 16 17 15 15 14 13 11
5 2 5 5 4 3 5 6 2 4 3 5 4 8 7 10 9 12 15 15 14 10 10 12 12 9 19 21 18 11 19 27 26 22 20 15 13 14 16 17 18 17 16 15
4 3 2 3 3 2 1 6 8 5 3 5 7 10 17 14 12 18 15 13 11 9 8 10 12 12 20 12 14 13 16 17 23 15 18 8 7 10 14 17 18 20 17 16
3 0 0 1 1 5 3 6 7 5 3 3 8 1 7 15 18 18 18 17 13 10 8 10 13 17 16 14 17 15 17 17 13 26 22 11 9 9 8 15 15 20 19 18
3 4 3 3 4 3 4 5 5 4 1 5 5 5 16 11 16 18 17 18 18 17 15 14 12 16 22 23 22 23 26 17 14 21 20 19 11 9 7 9 10 14 14 15
5 4 3 2 2 2 6 2 8 4 4 5 3 7 12 18 14 19 18 21 20 19 20 20 20 21 22 24 24 24 23 25 21 18 16 13 8 6 9 8 7 7 6 6
5 5 3 3 1 4 6 5 2 4 4 3 6 10 18 21 19 12 18 21 24 24 23 24 23 24 25 24 24 24 22 22 21 18 15 11 9 7 6 6 6 5 6 6
5 7 4 2 3 5 4 3 5 6 6 6 12 15 22 24 6 4 21 22 22 21 20 21 21 22 22 20 17 17 17 15 15 13 12 10 8 7 6 5 3 3 2 3
4 4 4 2 2 5 4 13 4 4 5 10 18 26 28 11 9 26 26 26 24 23 23 20 19 18 16 15 12 12 12 10 10 8 6 5 5 5 4 4 3 3 2 2
4 4 2 2 2 3 11 7 1 4 3 15 19 19 20 16 20 30 31 29 26 24 22 18 17 15 14 10 7 7 5 6 5 3 3 3 3 2 1 1 1 1 1 1
0 5 4 6 5 4 7 4 8 8 5 10 22 19 24 23 28 34 35 31 28 23 20 16 13 13 11 8 5 3 3 3 2 2 3 3 2 2 2 3 4 4 5 5
1 2 2 3 2 2 3 2 6 9 5 10 17 23 22 23 31 35 33 29 26 22 19 16 12 9 7 5 3 2 2 2 2 2 2 2 2 3 4 4 5 6 6 7
3 2 3 2 4 2 3 5 6 8 8 8 16 19 22 21 32 32 25 17 18 22 17 12 9 5 3 3 3 3 3 3 1 1 2 1 1 1 2 3 4 5 6 6
3 4 4 5 6 3 4 5 7 8 8 8 10 15 18 25 33 36 30 28 32 25 20 16 10 4 1 2 3 2 2 2 1 1 1 1 1 0 0 0 2 3 4 6
Wind_Direction
184 101 181 180 191 139 120 89 273 28 164 101 129 106 165 168 166 165 183 208 204 207 206 202 202 202 197 194 191 175 175 176 179 183 186 187 191 191 191 189 192 185 184 187
61 181 210 160 155 132 137 101 96 100 72 95 159 93 231 170 185 184 178 171 212 208 200 203 201 201 200 195 194 181 177 181 179 191 193 197 190 192 203 201 200 200 197 205
143 255 152 131 141 137 191 168 172 146 104 58 117 83 170 220 198 190 188 174 222 204 203 202 204 205 201 201 195 186 185 194 186 180 185 182 191 201 206 204 210 211 209 209
161 197 139 123 158 142 207 195 155 144 114 166 30 204 239 160 179 185 187 205 212 200 217 206 205 207 206 201 192 187 186 186 186 196 191 188 187 189 198 204 206 198 205 209
243 154 140 132 205 167 213 152 160 159 97 113 231 123 244 154 185 194 190 190 182 267 221 213 207 209 208 201 195 192 189 183 191 193 196 197 191 192 201 198 195 200 212 205
223 239 161 205 197 174 160 82 54 60 89 360 209 162 220 188 219 185 184 182 184 231 218 219 214 214 213 209 206 200 197 195 194 199 202 208 204 201 201 191 199 206 192 198
304 260 246 164 121 89 78 83 48 52 65 212 297 138 261 287 213 190 180 182 195 211 204 217 224 217 214 215 213 210 204 206 203 202 211 218 208 199 206 211 207 196 192 195
164 304 186 177 178 179 188 158 151 160 179 215 87 216 268 338 323 199 177 185 188 195 174 195 216 221 224 223 221 216 214 212 211 212 214 221 218 209 222 219 215 207 205 203
145 280 300 200 190 145 185 191 185 102 38 95 202 274 227 99 79 158 178 172 184 206 214 205 200 215 223 229 227 224 223 219 217 219 216 220 226 225 221 228 219 212 210 206
191 323 274 296 65 51 161 165 91 22 133 196 227 236 232 168 150 141 154 172 184 196 206 215 222 211 216 227 232 233 232 224 223 222 222 217 227 223 212 225 212 216 211 209
129 99 289 7 36 356 346 344 52 112 114 154 167 250 286 171 160 153 169 171 189 203 216 224 230 236 236 225 225 241 240 228 225 224 223 221 223 234 232 246 213 212 212 213
338 129 320 251 309 247 321 103 124 137 210 107 151 245 312 170 152 165 165 172 174 185 194 210 230 232 228 217 227 241 241 228 225 224 220 223 227 231 237 241 233 213 217 233
190 13 37 346 357 8 43 321 125 125 90 189 136 244 51 141 151 171 159 163 172 184 196 192 212 230 226 225 231 241 234 218 214 214 216 225 233 235 236 235 241 236 239 244
71 95 147 184 202 196 329 333 342 117 114 167 204 156 195 173 157 159 161 159 160 160 177 198 193 198 216 199 204 214 205 201 205 195 202 213 232 242 245 244 239 237 241 240
88 120 140 165 218 234 161 325 328 200 182 158 195 180 195 183 161 160 154 162 155 159 175 180 198 196 201 200 199 204 211 213 226 192 197 211 290 268 252 251 250 239 238 240
29 104 98 216 306 271 110 3 26 55 83 41 129 148 136 143 153 151 152 144 141 148 158 174 182 185 188 202 214 209 198 136 172 208 213 245 289 278 262 231 232 241 235 235
72 115 44 259 326 323 6 2 355 280 215 143 169 223 151 146 158 148 142 144 141 140 141 135 142 165 166 173 170 162 168 176 196 187 209 240 249 225 197 175 195 211 233 240
124 84 90 213 337 138 234 121 99 103 7 338 290 154 149 130 141 144 152 152 151 143 130 124 129 137 143 152 160 157 148 153 171 182 196 203 203 197 202 206 188 204 262 284
45 117 84 127 201 288 317 31 31 106 291 281 147 131 123 131 122 116 158 165 153 144 135 129 127 124 125 128 130 137 137 139 145 143 147 148 152 161 158 164 154 189 211 224
57 65 106 97 126 204 261 306 326 150 318 164 162 142 142 145 153 158 164 161 153 145 141 139 137 131 125 120 122 127 125 130 129 126 128 133 135 135 137 131 132 149 193 187
18 13 123 123 209 290 287 311 323 119 241 169 176 160 157 168 171 165 172 166 159 151 148 148 140 136 131 129 132 132 130 133 121 120 123 134 143 144 134 121 122 102 83 65
162 129 168 86 95 265 351 329 212 232 220 178 183 175 165 151 158 162 171 168 163 159 155 155 153 145 137 132 137 137 145 130 130 138 171 186 194 182 191 266 276 249 219 217
107 180 184 166 211 272 328 294 345 329 295 182 188 180 172 153 160 166 169 170 167 166 163 162 166 156 143 134 125 128 133 133 147 186 210 223 240 248 252 250 248 251 254 250
280 134 127 98 264 332 21 48 22 9 326 195 190 178 172 160 168 168 171 170 170 173 171 169 166 151 137 118 94 87 90 92 112 145 171 203 243 260 265 264 264 267 267 273
208 130 146 302 277 136 132 137 101 80 84 143 166 181 182 181 171 171 165 163 198 188 177 172 165 145 108 72 44 48 67 72 64 87 108 134 188 234 269 278 288 294 292 282
197 171 149 217 203 157 163 169 158 136 118 117 147 171 189 188 179 179 191 197 206 186 185 183 179 170 94 3 342 353 19 34 47 77 95 89 90 112 164 347 322 332 315 306